Time,TemperatureF,DewpointF,PressureIn,WindDirection,WindDirectionDegrees,WindSpeedMPH,WindSpeedGustMPH,Humidity,HourlyPrecipIn,Conditions,Clouds,dailyrainin,SoftwareType,DateUTC
2013-08-22 00:08:00,73.2,72.6,30.10,SSE,167,1.0,2.0,98,0.00,,-RA,0.00,VWS V14.01,2013-08-22 04:08:00,
2013-08-22 00:09:00,73.2,72.2,30.11,South,181,2.0,3.0,97,0.00,,-RA,0.00,VWS V14.01,2013-08-22 04:09:00,
2013-08-22 00:14:00,73.1,72.5,30.12,SSE,152,0.0,3.0,98,0.00,,-RA,0.00,VWS V14.01,2013-08-22 04:14:00,
2013-08-22 00:24:00,73.2,72.6,30.11,SSE,157,1.0,3.0,98,0.00,,-RA,0.00,VWS V14.01,2013-08-22 04:24:00,
2013-08-22 00:29:00,73.3,72.7,30.11,South,173,1.0,4.0,98,0.00,,-RA,0.00,VWS V14.01,2013-08-22 04:29:00,
2013-08-22 00:34:00,73.1,72.5,30.10,SSW,193,3.0,3.0,98,0.00,,-RA,0.00,VWS V14.01,2013-08-22 04:34:00,
2013-08-22 00:39:00,73.2,72.6,30.10,South,190,0.0,5.0,98,0.00,,-RA,0.00,VWS V14.01,2013-08-22 04:39:00,
2013-08-22 00:44:00,73.0,72.4,30.11,SSE,152,2.0,5.0,98,0.00,,-RA,0.00,VWS V14.01,2013-08-22 04:44:00,
2013-08-22 00:54:00,72.8,72.2,30.11,South,189,2.0,8.0,98,0.00,,-RA,0.00,VWS V14.01,2013-08-22 04:54:00,
2013-08-22 00:59:00,72.7,72.1,30.11,SSW,201,2.0,7.0,98,0.00,,BKN250,0.00,VWS V14.01,2013-08-22 04:59:00,
2013-08-22 01:08:00,72.6,72.0,30.10,South,175,3.0,7.0,98,0.00,,BKN250,0.00,VWS V14.01,2013-08-22 05:08:00,
2013-08-22 01:14:00,72.3,71.7,30.10,South,172,0.0,5.0,98,0.00,,BKN250,0.00,VWS V14.01,2013-08-22 05:14:00,
2013-08-22 01:19:00,72.4,71.8,30.10,SSE,168,1.0,3.0,98,0.00,,BKN250,0.00,VWS V14.01,2013-08-22 05:19:00,
2013-08-22 01:29:00,72.3,71.3,30.10,South,173,2.0,5.0,97,0.00,,BKN250,0.00,VWS V14.01,2013-08-22 05:29:00,
2013-08-22 01:34:00,72.3,71.7,30.10,South,177,1.0,4.0,98,0.00,,BKN250,0.00,VWS V14.01,2013-08-22 05:34:00,
2013-08-22 01:39:00,72.3,71.7,30.10,South,177,1.0,2.0,98,0.00,,BKN250,0.00,VWS V14.01,2013-08-22 05:39:00,
2013-08-22 01:44:00,72.2,71.6,30.10,South,175,0.0,3.0,98,0.00,,BKN250,0.00,VWS V14.01,2013-08-22 05:44:00,
2013-08-22 01:49:00,72.1,71.5,30.10,SSW,206,0.0,3.0,98,0.00,,BKN250,0.00,VWS V14.01,2013-08-22 05:49:00,
2013-08-22 01:59:00,72.0,71.4,30.10,South,181,2.0,5.0,98,0.00,,BKN250,0.00,VWS V14.01,2013-08-22 05:59:00,
2013-08-22 02:08:00,72.0,71.4,30.10,SSW,192,1.0,3.0,98,0.00,,BKN250,0.00,VWS V14.01,2013-08-22 06:08:00,
2013-08-22 02:14:00,72.1,71.5,30.09,SSW,204,1.0,5.0,98,0.00,,BKN250,0.00,VWS V14.01,2013-08-22 06:14:00,
2013-08-22 02:24:00,72.0,71.4,30.09,South,184,2.0,4.0,98,0.00,,BKN250,0.00,VWS V14.01,2013-08-22 06:24:00,
2013-08-22 02:29:00,72.0,71.4,30.09,SSW,193,1.0,7.0,98,0.00,,BKN250,0.00,VWS V14.01,2013-08-22 06:29:00,
2013-08-22 02:39:00,72.1,71.5,30.09,South,179,0.0,4.0,98,0.00,,BKN250,0.00,VWS V14.01,2013-08-22 06:39:00,
2013-08-22 02:44:00,72.0,71.4,30.08,SSE,162,0.0,4.0,98,0.00,,BKN250,0.00,VWS V14.01,2013-08-22 06:44:00,
2013-08-22 02:54:00,72.0,71.4,30.08,SW,221,0.0,4.0,98,0.00,,BKN250,0.00,VWS V14.01,2013-08-22 06:54:00,
2013-08-22 03:00:00,72.0,71.4,30.08,South,180,0.0,3.0,98,0.00,,OVC110,0.00,VWS V14.01,2013-08-22 07:00:00,
2013-08-22 03:08:00,72.0,71.4,30.08,SSE,156,1.0,3.0,98,0.00,,OVC110,0.00,VWS V14.01,2013-08-22 07:08:00,
2013-08-22 03:14:00,72.1,71.5,30.08,South,181,1.0,5.0,98,0.00,,OVC110,0.00,VWS V14.01,2013-08-22 07:14:00,
2013-08-22 03:19:00,72.1,71.5,30.08,SSE,154,1.0,4.0,98,0.00,,OVC110,0.00,VWS V14.01,2013-08-22 07:19:00,
2013-08-22 03:26:00,72.0,71.4,30.07,South,172,2.0,3.0,98,0.00,,OVC110,0.00,VWS V14.01,2013-08-22 07:26:00,
2013-08-22 03:34:00,72.2,71.6,30.08,WSW,238,0.0,4.0,98,0.00,,OVC110,0.00,VWS V14.01,2013-08-22 07:34:00,
2013-08-22 03:44:00,72.2,71.6,30.07,SSW,192,1.0,3.0,98,0.00,,OVC110,0.00,VWS V14.01,2013-08-22 07:44:00,
2013-08-22 03:54:00,72.3,71.7,30.07,WSW,256,2.0,3.0,98,0.00,,OVC110,0.00,VWS V14.01,2013-08-22 07:54:00,
2013-08-22 03:59:00,72.1,71.2,30.07,WSW,251,3.0,5.0,97,0.00,,OVC150,0.00,VWS V14.01,2013-08-22 07:59:00,
2013-08-22 04:08:00,72.1,71.2,30.07,SSW,201,1.0,3.0,97,0.00,,OVC150,0.00,VWS V14.01,2013-08-22 08:08:00,
2013-08-22 04:14:00,72.0,71.4,30.06,SSW,213,0.0,4.0,98,0.00,,OVC150,0.00,VWS V14.01,2013-08-22 08:14:00,
2013-08-22 04:19:00,72.0,71.4,30.06,South,189,1.0,3.0,98,0.00,,OVC150,0.00,VWS V14.01,2013-08-22 08:19:00,
2013-08-22 04:24:00,72.2,71.2,30.06,SSW,202,2.0,2.0,97,0.00,,OVC150,0.00,VWS V14.01,2013-08-22 08:24:00,
2013-08-22 04:34:00,72.1,71.2,30.06,South,171,0.0,2.0,97,0.00,,OVC150,0.00,VWS V14.01,2013-08-22 08:34:00,
2013-08-22 04:39:00,72.1,71.5,30.06,South,173,0.0,2.0,98,0.00,,OVC150,0.00,VWS V14.01,2013-08-22 08:39:00,
2013-08-22 04:49:00,72.0,71.1,30.06,South,175,0.0,2.0,97,0.00,,OVC150,0.00,VWS V14.01,2013-08-22 08:49:00,
2013-08-22 04:54:00,72.0,71.4,30.06,SSW,210,1.0,4.0,98,0.00,,OVC150,0.00,VWS V14.01,2013-08-22 08:54:00,
2013-08-22 05:08:00,72.0,71.1,30.06,SSW,208,0.0,3.0,97,0.00,,-RA,0.00,VWS V14.01,2013-08-22 09:08:00,
2013-08-22 05:14:00,71.9,70.9,30.05,South,183,0.0,1.0,97,0.00,,-RA,0.00,VWS V14.01,2013-08-22 09:14:00,
2013-08-22 05:24:00,71.9,71.3,30.05,SW,223,4.0,4.0,98,0.00,,-RA,0.00,VWS V14.01,2013-08-22 09:24:00,
2013-08-22 05:29:00,71.9,70.9,30.05,South,169,0.0,4.0,97,0.00,,-RA,0.00,VWS V14.01,2013-08-22 09:29:00,
2013-08-22 05:39:00,72.0,71.1,30.05,SSE,166,0.0,4.0,97,0.00,,-RA,0.00,VWS V14.01,2013-08-22 09:39:00,
2013-08-22 05:44:00,71.9,70.9,30.05,SSE,156,0.0,1.0,97,0.00,,-RA,0.00,VWS V14.01,2013-08-22 09:44:00,
2013-08-22 05:49:00,72.0,71.1,30.06,South,179,0.0,2.0,97,0.00,,-RA,0.00,VWS V14.01,2013-08-22 09:49:00,
2013-08-22 05:54:00,72.0,71.1,30.06,South,188,0.0,2.0,97,0.00,,-RA,0.00,VWS V14.01,2013-08-22 09:54:00,
2013-08-22 05:59:00,71.9,71.3,30.06,SE,139,0.0,2.0,98,0.00,,OVC160,0.00,VWS V14.01,2013-08-22 09:59:00,
2013-08-22 06:08:00,72.1,71.2,30.06,SSE,168,1.0,3.0,97,0.00,,OVC160,0.00,VWS V14.01,2013-08-22 10:08:00,
2013-08-22 06:14:00,72.0,71.1,30.06,SSE,149,1.0,4.0,97,0.00,,OVC160,0.00,VWS V14.01,2013-08-22 10:14:00,
2013-08-22 06:19:00,72.0,71.1,30.06,SW,215,1.0,3.0,97,0.00,,OVC160,0.00,VWS V14.01,2013-08-22 10:19:00,
2013-08-22 06:24:00,72.0,71.1,30.06,SE,137,1.0,1.0,97,0.00,,OVC160,0.00,VWS V14.01,2013-08-22 10:24:00,
2013-08-22 06:29:00,71.9,70.9,30.06,SE,142,0.0,1.0,97,0.00,,OVC160,0.00,VWS V14.01,2013-08-22 10:29:00,
2013-08-22 06:34:00,72.0,71.1,30.06,South,180,1.0,2.0,97,0.00,,OVC160,0.00,VWS V14.01,2013-08-22 10:34:00,
2013-08-22 06:39:00,72.0,71.1,30.07,West,260,2.0,5.0,97,0.00,,OVC160,0.00,VWS V14.01,2013-08-22 10:39:00,
2013-08-22 06:44:00,72.0,71.1,30.07,West,264,1.0,4.0,97,0.00,,OVC160,0.00,VWS V14.01,2013-08-22 10:44:00,
2013-08-22 06:49:00,72.0,71.1,30.07,SW,228,1.0,7.0,97,0.00,,OVC160,0.00,VWS V14.01,2013-08-22 10:49:00,
2013-08-22 08:29:00,72.8,71.2,30.08,SSW,193,0.0,2.0,95,0.00,,OVC250,0.00,VWS V14.01,2013-08-22 12:29:00,
2013-08-22 08:39:00,73.1,71.5,30.08,West,266,4.0,4.0,95,0.00,,OVC250,0.00,VWS V14.01,2013-08-22 12:39:00,
2013-08-22 08:49:00,73.4,70.8,30.07,WNW,297,0.0,5.0,92,0.00,,OVC250,0.00,VWS V14.01,2013-08-22 12:49:00,
2013-08-22 08:59:00,73.9,70.6,30.07,West,272,4.0,5.0,89,0.00,,OVC250,0.00,VWS V14.01,2013-08-22 12:59:00,
2013-08-22 09:08:00,74.3,70.6,30.07,WSW,252,0.0,7.0,88,0.00,,OVC250,0.00,VWS V14.01,2013-08-22 13:08:00,
2013-08-22 09:14:00,74.5,70.8,30.06,West,262,0.0,5.0,88,0.00,,OVC250,0.00,VWS V14.01,2013-08-22 13:14:00,
2013-08-22 09:19:00,74.6,70.6,30.06,West,266,0.0,2.0,87,0.00,,OVC250,0.00,VWS V14.01,2013-08-22 13:19:00,
2013-08-22 09:29:00,75.4,70.3,30.07,NNW,337,1.0,5.0,84,0.00,,OVC250,0.00,VWS V14.01,2013-08-22 13:29:00,
2013-08-22 09:34:00,76.2,69.9,30.07,West,275,2.0,7.0,81,0.00,,OVC250,0.00,VWS V14.01,2013-08-22 13:34:00,
2013-08-22 09:39:00,76.8,69.7,30.07,NW,316,0.0,5.0,79,0.00,,OVC250,0.00,VWS V14.01,2013-08-22 13:39:00,
2013-08-22 09:44:00,77.2,68.9,30.07,West,273,1.0,7.0,76,0.00,,OVC250,0.00,VWS V14.01,2013-08-22 13:44:00,
2013-08-22 09:49:00,78.1,68.5,30.07,NW,321,4.0,10.0,72,0.00,,OVC250,0.00,VWS V14.01,2013-08-22 13:49:00,
2013-08-22 09:54:00,78.2,68.6,30.06,WNW,293,1.0,9.0,72,0.00,,OVC250,0.00,VWS V14.01,2013-08-22 13:54:00,
2013-08-22 09:59:00,78.6,67.2,30.06,West,266,4.0,8.0,68,0.00,,SCT250,0.00,VWS V14.01,2013-08-22 13:59:00,
2013-08-22 10:08:00,78.8,67.9,30.06,West,280,0.0,9.0,69,0.00,,SCT250,0.00,VWS V14.01,2013-08-22 14:08:00,
2013-08-22 10:14:00,79.6,67.3,30.06,NW,309,5.0,8.0,66,0.00,,SCT250,0.00,VWS V14.01,2013-08-22 14:14:00,
2013-08-22 10:19:00,79.8,66.5,30.06,WSW,255,4.0,10.0,64,0.00,,SCT250,0.00,VWS V14.01,2013-08-22 14:19:00,
2013-08-22 10:24:00,80.2,65.9,30.06,WSW,242,5.0,9.0,62,0.00,,SCT250,0.00,VWS V14.01,2013-08-22 14:24:00,
2013-08-22 10:34:00,80.6,67.3,30.06,WNW,287,5.0,11.0,64,0.00,,SCT250,0.00,VWS V14.01,2013-08-22 14:34:00,
2013-08-22 10:39:00,80.7,66.4,30.07,WNW,287,2.0,10.0,62,0.00,,SCT250,0.00,VWS V14.01,2013-08-22 14:39:00,
2013-08-22 10:44:00,80.8,65.5,30.07,NW,310,7.0,9.0,60,0.00,,SCT250,0.00,VWS V14.01,2013-08-22 14:44:00,
2013-08-22 10:54:00,81.0,66.7,30.07,NW,322,6.0,9.0,62,0.00,,SCT250,0.00,VWS V14.01,2013-08-22 14:54:00,
2013-08-22 11:08:00,81.6,67.3,30.07,WNW,290,14.0,18.0,62,0.00,,SCT250,0.00,VWS V14.01,2013-08-22 15:08:00,
2013-08-22 11:14:00,81.7,67.3,30.07,NNE,31,4.0,8.0,62,0.00,,SCT250,0.00,VWS V14.01,2013-08-22 15:14:00,
2013-08-22 11:19:00,82.0,67.6,30.07,WNW,302,5.0,11.0,62,0.00,,SCT250,0.00,VWS V14.01,2013-08-22 15:19:00,
2013-08-22 11:29:00,82.1,66.7,30.06,NW,316,8.0,10.0,60,0.00,,SCT250,0.00,VWS V14.01,2013-08-22 15:29:00,
2013-08-22 11:39:00,82.3,66.9,30.06,WNW,292,4.0,10.0,60,0.00,,SCT250,0.00,VWS V14.01,2013-08-22 15:39:00,
2013-08-22 11:44:00,82.6,67.2,30.06,NNW,342,2.0,8.0,60,0.00,,SCT250,0.00,VWS V14.01,2013-08-22 15:44:00,
2013-08-22 11:49:00,82.9,66.4,30.06,North,354,3.0,7.0,58,0.00,,SCT250,0.00,VWS V14.01,2013-08-22 15:49:00,
2013-08-22 11:59:00,83.0,66.0,30.06,NW,325,0.0,7.0,57,0.00,,SCT250,0.00,VWS V14.01,2013-08-22 15:59:00,
2013-08-22 12:08:00,83.1,66.6,30.06,NNE,27,2.0,10.0,58,0.00,,SCT250,0.00,VWS V14.01,2013-08-22 16:08:00,
2013-08-22 12:14:00,83.6,68.1,30.05,NW,310,8.0,10.0,60,0.00,,SCT250,0.00,VWS V14.01,2013-08-22 16:14:00,
2013-08-22 12:19:00,83.8,66.7,30.05,NW,304,4.0,8.0,57,0.00,,SCT250,0.00,VWS V14.01,2013-08-22 16:19:00,
2013-08-22 12:26:00,84.0,66.4,30.05,NW,304,3.0,9.0,55,0.00,,SCT250,0.00,VWS V14.01,2013-08-22 16:26:00,
2013-08-22 12:34:00,83.9,65.7,30.04,West,262,1.0,11.0,54,0.00,,SCT250,0.00,VWS V14.01,2013-08-22 16:34:00,
2013-08-22 12:39:00,84.4,65.0,30.05,West,281,3.0,8.0,52,0.00,,SCT250,0.00,VWS V14.01,2013-08-22 16:39:00,
2013-08-22 12:44:00,84.8,66.6,30.05,NW,315,6.0,11.0,54,0.00,,SCT250,0.00,VWS V14.01,2013-08-22 16:44:00,
2013-08-22 12:49:00,84.7,65.9,30.04,North,4,3.0,9.0,53,0.00,,SCT250,0.00,VWS V14.01,2013-08-22 16:49:00,
2013-08-22 12:59:00,84.2,64.8,30.04,West,275,7.0,12.0,52,0.00,,SCT250,0.00,VWS V14.01,2013-08-22 16:59:00,
2013-08-22 13:08:00,85.1,63.9,30.04,NNW,339,5.0,11.0,49,0.00,,SCT250,0.00,VWS V14.01,2013-08-22 17:08:00,
2013-08-22 13:14:00,84.7,64.7,30.04,West,276,4.0,8.0,51,0.00,,SCT250,0.00,VWS V14.01,2013-08-22 17:14:00,
2013-08-22 13:24:00,86.0,64.7,30.03,NNW,327,14.0,14.0,49,0.00,,SCT250,0.00,VWS V14.01,2013-08-22 17:24:00,
2013-08-22 13:29:00,85.6,64.3,30.03,WSW,248,3.0,15.0,49,0.00,,SCT250,0.00,VWS V14.01,2013-08-22 17:29:00,
2013-08-22 13:34:00,85.3,64.1,30.02,WSW,241,3.0,13.0,49,0.00,,SCT250,0.00,VWS V14.01,2013-08-22 17:34:00,
2013-08-22 13:39:00,84.9,64.9,30.02,WNW,295,0.0,6.0,51,0.00,,SCT250,0.00,VWS V14.01,2013-08-22 17:39:00,
2013-08-22 13:49:00,85.5,64.9,30.01,WNW,302,8.0,9.0,50,0.00,,SCT250,0.00,VWS V14.01,2013-08-22 17:49:00,
2013-08-22 13:54:00,85.9,65.2,30.01,WSW,248,6.0,14.0,50,0.00,,SCT250,0.00,VWS V14.01,2013-08-22 17:54:00,
2013-08-22 13:59:00,86.8,64.8,30.01,WSW,258,12.0,16.0,48,0.00,,SCT250,0.00,VWS V14.01,2013-08-22 17:59:00,
2013-08-22 14:04:00,86.8,63.5,30.00,West,263,2.0,17.0,46,0.00,,SCT250,0.00,VWS V14.01,2013-08-22 18:04:00,
2013-08-22 14:09:00,86.9,64.3,30.00,WSW,252,1.0,8.0,47,0.00,,SCT250,0.00,VWS V14.01,2013-08-22 18:09:00,
2013-08-22 14:14:00,87.7,65.0,30.00,WSW,238,6.0,7.0,47,0.00,,SCT250,0.00,VWS V14.01,2013-08-22 18:14:00,
2013-08-22 14:19:00,87.4,66.0,30.00,North,359,2.0,7.0,49,0.00,,SCT250,0.00,VWS V14.01,2013-08-22 18:19:00,
2013-08-22 14:24:00,87.3,65.3,30.00,West,279,6.0,12.0,48,0.00,,SCT250,0.00,VWS V14.01,2013-08-22 18:24:00,
2013-08-22 14:34:00,87.9,66.4,29.99,NW,314,5.0,9.0,49,0.00,,SCT250,0.00,VWS V14.01,2013-08-22 18:34:00,
2013-08-22 14:39:00,86.7,65.3,29.99,WSW,254,1.0,12.0,49,0.00,,SCT250,0.00,VWS V14.01,2013-08-22 18:39:00,
2013-08-22 14:49:00,85.8,65.1,29.99,West,275,11.0,11.0,50,0.00,,SCT250,0.00,VWS V14.01,2013-08-22 18:49:00,
2013-08-22 14:54:00,86.4,66.3,29.99,WNW,293,5.0,15.0,51,0.00,,SCT250,0.00,VWS V14.01,2013-08-22 18:54:00,
2013-08-22 14:59:00,86.5,65.8,29.99,West,273,12.0,15.0,50,0.00,,SCT120,0.00,VWS V14.01,2013-08-22 18:59:00,
2013-08-22 15:08:00,87.1,65.7,29.99,West,272,3.0,12.0,49,0.00,,SCT120,0.00,VWS V14.01,2013-08-22 19:08:00,
2013-08-22 15:14:00,87.6,66.2,29.99,WNW,301,0.0,9.0,49,0.00,,SCT120,0.00,VWS V14.01,2013-08-22 19:14:00,
2013-08-22 15:19:00,87.8,66.3,29.99,WNW,288,4.0,10.0,49,0.00,,SCT120,0.00,VWS V14.01,2013-08-22 19:19:00,
2013-08-22 15:24:00,88.5,67.0,29.98,West,273,3.0,13.0,49,0.00,,SCT120,0.00,VWS V14.01,2013-08-22 19:24:00,
2013-08-22 15:29:00,88.7,65.9,29.98,SW,236,4.0,13.0,47,0.00,,SCT120,0.00,VWS V14.01,2013-08-22 19:29:00,
2013-08-22 15:34:00,87.6,64.9,29.98,WSW,243,10.0,19.0,47,0.00,,SCT120,0.00,VWS V14.01,2013-08-22 19:34:00,
2013-08-22 15:39:00,86.8,66.1,29.98,West,271,9.0,13.0,50,0.00,,SCT120,0.00,VWS V14.01,2013-08-22 19:39:00,
2013-08-22 15:44:00,86.3,65.0,29.98,West,273,11.0,16.0,49,0.00,,SCT120,0.00,VWS V14.01,2013-08-22 19:44:00,
2013-08-22 15:49:00,86.3,65.0,29.98,WSW,256,5.0,16.0,49,0.00,,SCT120,0.00,VWS V14.01,2013-08-22 19:49:00,
2013-08-22 15:54:00,85.9,65.2,29.98,WNW,289,10.0,13.0,50,0.00,,SCT120,0.00,VWS V14.01,2013-08-22 19:54:00,
2013-08-22 15:59:00,86.0,65.3,29.98,WNW,285,0.0,14.0,50,0.00,,SCT130,0.00,VWS V14.01,2013-08-22 19:59:00,
2013-08-22 16:08:00,86.2,64.9,29.98,WNW,293,9.0,13.0,49,0.00,,SCT130,0.00,VWS V14.01,2013-08-22 20:08:00,
2013-08-22 16:14:00,86.5,66.4,29.97,WNW,284,10.0,15.0,51,0.00,,SCT130,0.00,VWS V14.01,2013-08-22 20:14:00,
2013-08-22 16:19:00,86.0,66.5,29.97,WSW,248,10.0,14.0,52,0.00,,SCT130,0.00,VWS V14.01,2013-08-22 20:19:00,
2013-08-22 16:24:00,85.9,67.0,29.97,WSW,258,3.0,11.0,53,0.00,,SCT130,0.00,VWS V14.01,2013-08-22 20:24:00,
2013-08-22 16:29:00,85.9,66.4,29.97,West,270,2.0,10.0,52,0.00,,SCT130,0.00,VWS V14.01,2013-08-22 20:29:00,
2013-08-22 16:34:00,85.8,66.9,29.97,West,262,1.0,8.0,53,0.00,,SCT130,0.00,VWS V14.01,2013-08-22 20:34:00,
2013-08-22 16:39:00,86.1,67.2,29.97,WSW,258,5.0,11.0,53,0.00,,SCT130,0.00,VWS V14.01,2013-08-22 20:39:00,
2013-08-22 16:44:00,86.0,65.9,29.97,West,275,4.0,13.0,51,0.00,,SCT130,0.00,VWS V14.01,2013-08-22 20:44:00,
2013-08-22 16:49:00,86.5,67.0,29.97,West,268,4.0,8.0,52,0.00,,SCT130,0.00,VWS V14.01,2013-08-22 20:49:00,
2013-08-22 16:54:00,85.8,65.7,29.97,WSW,252,5.0,10.0,51,0.00,,SCT130,0.00,VWS V14.01,2013-08-22 20:54:00,
2013-08-22 16:59:00,85.6,65.6,29.96,WNW,295,3.0,8.0,51,0.00,,BKN250,0.00,VWS V14.01,2013-08-22 20:59:00,
2013-08-22 17:08:00,85.5,66.1,29.96,West,268,0.0,7.0,52,0.00,,BKN250,0.00,VWS V14.01,2013-08-22 21:08:00,
2013-08-22 17:14:00,85.7,66.2,29.96,WSW,252,5.0,11.0,52,0.00,,BKN250,0.00,VWS V14.01,2013-08-22 21:14:00,
2013-08-22 17:19:00,86.1,66.6,29.96,WNW,282,7.0,11.0,52,0.00,,BKN250,0.00,VWS V14.01,2013-08-22 21:19:00,
2013-08-22 17:26:00,85.9,65.8,29.96,WNW,287,4.0,12.0,51,0.00,,BKN250,0.00,VWS V14.01,2013-08-22 21:26:00,
2013-08-22 17:34:00,86.6,67.1,29.96,WSW,257,4.0,11.0,52,0.00,,BKN250,0.00,VWS V14.01,2013-08-22 21:34:00,
2013-08-22 17:39:00,86.0,65.3,29.96,WNW,282,9.0,15.0,50,0.00,,BKN250,0.00,VWS V14.01,2013-08-22 21:39:00,
2013-08-22 17:44:00,85.5,64.9,29.96,West,270,0.0,13.0,50,0.00,,BKN250,0.00,VWS V14.01,2013-08-22 21:44:00,
2013-08-22 17:49:00,85.2,64.0,29.96,WSW,248,7.0,17.0,49,0.00,,BKN250,0.00,VWS V14.01,2013-08-22 21:49:00,
2013-08-22 17:55:00,85.2,64.0,29.96,West,272,6.0,15.0,49,0.00,,BKN250,0.00,VWS V14.01,2013-08-22 21:55:00,
2013-08-22 18:08:00,84.8,64.8,29.96,West,273,4.0,7.0,51,0.00,,BKN250,0.00,VWS V14.01,2013-08-22 22:08:00,
2013-08-22 18:14:00,84.9,64.9,29.96,West,266,3.0,7.0,51,0.00,,BKN250,0.00,VWS V14.01,2013-08-22 22:14:00,
2013-08-22 18:19:00,84.7,64.7,29.96,SSW,210,1.0,6.0,51,0.00,,BKN250,0.00,VWS V14.01,2013-08-22 22:19:00,
2013-08-22 18:24:00,84.8,65.4,29.96,West,277,3.0,11.0,52,0.00,,BKN250,0.00,VWS V14.01,2013-08-22 22:24:00,
2013-08-22 18:29:00,85.1,65.1,29.95,WSW,252,0.0,5.0,51,0.00,,BKN250,0.00,VWS V14.01,2013-08-22 22:29:00,
2013-08-22 18:34:00,85.1,65.7,29.95,West,264,7.0,8.0,52,0.00,,BKN250,0.00,VWS V14.01,2013-08-22 22:34:00,
2013-08-22 18:39:00,85.0,65.6,29.95,West,272,7.0,12.0,52,0.00,,BKN250,0.00,VWS V14.01,2013-08-22 22:39:00,
2013-08-22 18:49:00,85.0,65.6,29.95,WNW,300,4.0,6.0,52,0.00,,BKN250,0.00,VWS V14.01,2013-08-22 22:49:00,
2013-08-22 18:59:00,84.9,66.1,29.95,West,279,2.0,11.0,53,0.00,,BKN250,0.00,VWS V14.01,2013-08-22 22:59:00,
2013-08-22 19:08:00,84.6,65.8,29.95,West,259,6.0,7.0,53,0.00,,BKN250,0.00,VWS V14.01,2013-08-22 23:08:00,
2013-08-22 19:14:00,84.6,66.4,29.95,SSW,201,0.0,8.0,54,0.00,,BKN250,0.00,VWS V14.01,2013-08-22 23:14:00,
2013-08-22 19:19:00,84.4,66.7,29.95,WNW,287,0.0,5.0,55,0.00,,BKN250,0.00,VWS V14.01,2013-08-22 23:19:00,
2013-08-22 19:24:00,84.2,65.4,29.95,SSW,210,2.0,7.0,53,0.00,,BKN250,0.00,VWS V14.01,2013-08-22 23:24:00,
2013-08-22 19:29:00,84.1,65.9,29.95,WSW,252,3.0,5.0,54,0.00,,BKN250,0.00,VWS V14.01,2013-08-22 23:29:00,
2013-08-22 19:34:00,84.1,65.3,29.94,WSW,255,2.0,8.0,53,0.00,,BKN250,0.00,VWS V14.01,2013-08-22 23:34:00,
2013-08-22 19:39:00,83.9,65.2,29.94,SSW,208,1.0,6.0,53,0.00,,BKN250,0.00,VWS V14.01,2013-08-22 23:39:00,
2013-08-22 19:44:00,83.7,66.1,29.94,SW,228,1.0,4.0,55,0.00,,BKN250,0.00,VWS V14.01,2013-08-22 23:44:00,
2013-08-22 19:49:00,83.4,66.3,29.94,SSW,208,0.0,5.0,57,0.00,,BKN250,0.00,VWS V14.01,2013-08-22 23:49:00,
2013-08-22 19:54:00,83.3,66.3,29.95,WSW,243,5.0,5.0,57,0.00,,BKN250,0.00,VWS V14.01,2013-08-22 23:54:00,
2013-08-22 19:59:00,83.3,66.3,29.95,WNW,283,3.0,7.0,57,0.00,,BKN250,0.00,VWS V14.01,2013-08-22 23:59:00,
2013-08-22 20:08:00,83.2,66.2,29.95,West,263,3.0,4.0,57,0.00,,BKN250,0.00,VWS V14.01,2013-08-23 00:08:00,
2013-08-22 20:14:00,82.8,66.8,29.95,SW,227,0.0,5.0,59,0.00,,BKN250,0.00,VWS V14.01,2013-08-23 00:14:00,
2013-08-22 20:19:00,82.7,67.3,29.96,SW,229,1.0,5.0,60,0.00,,BKN250,0.00,VWS V14.01,2013-08-23 00:19:00,
2013-08-22 20:24:00,82.5,67.1,29.96,SSW,192,2.0,5.0,60,0.00,,BKN250,0.00,VWS V14.01,2013-08-23 00:24:00,
2013-08-22 20:29:00,82.3,67.4,29.96,SW,228,2.0,2.0,61,0.00,,BKN250,0.00,VWS V14.01,2013-08-23 00:29:00,
2013-08-22 20:34:00,82.0,67.1,29.96,WSW,258,0.0,4.0,61,0.00,,BKN250,0.00,VWS V14.01,2013-08-23 00:34:00,
2013-08-22 20:44:00,81.9,67.0,29.96,WSW,245,2.0,5.0,61,0.00,,BKN250,0.00,VWS V14.01,2013-08-23 00:44:00,
2013-08-22 20:49:00,81.8,67.4,29.96,WSW,252,1.0,4.0,62,0.00,,BKN250,0.00,VWS V14.01,2013-08-23 00:49:00,
2013-08-22 20:54:00,81.6,67.8,29.96,SW,218,0.0,6.0,63,0.00,,BKN250,0.00,VWS V14.01,2013-08-23 00:54:00,
2013-08-22 20:59:00,81.4,67.6,29.97,WSW,252,2.0,4.0,63,0.00,,BKN250,0.00,VWS V14.01,2013-08-23 00:59:00,
2013-08-22 21:08:00,81.3,67.9,29.97,SW,221,2.0,6.0,64,0.00,,BKN250,0.00,VWS V14.01,2013-08-23 01:08:00,
2013-08-22 21:14:00,81.2,67.9,29.97,WSW,239,0.0,6.0,64,0.00,,BKN250,0.00,VWS V14.01,2013-08-23 01:14:00,
2013-08-22 21:19:00,81.0,67.7,29.97,SW,233,0.0,6.0,64,0.00,,BKN250,0.00,VWS V14.01,2013-08-23 01:19:00,
2013-08-22 21:26:00,80.9,67.6,29.97,WNW,299,4.0,7.0,64,0.00,,BKN250,0.00,VWS V14.01,2013-08-23 01:26:00,
2013-08-22 21:34:00,80.7,67.4,29.97,West,260,1.0,6.0,64,0.00,,BKN250,0.00,VWS V14.01,2013-08-23 01:34:00,
2013-08-22 21:39:00,80.6,67.3,29.97,SSE,166,0.0,5.0,64,0.00,,BKN250,0.00,VWS V14.01,2013-08-23 01:39:00,
2013-08-22 21:44:00,80.5,67.2,29.98,West,261,2.0,5.0,64,0.00,,BKN250,0.00,VWS V14.01,2013-08-23 01:44:00,
2013-08-22 21:54:00,80.3,66.5,29.98,WSW,250,3.0,7.0,63,0.00,,BKN250,0.00,VWS V14.01,2013-08-23 01:54:00,
2013-08-22 22:08:00,80.0,65.8,29.98,WNW,289,7.0,8.0,62,0.00,,SCT250,0.00,VWS V14.01,2013-08-23 02:08:00,
2013-08-22 22:14:00,79.8,65.6,29.98,West,263,4.0,10.0,62,0.00,,SCT250,0.00,VWS V14.01,2013-08-23 02:14:00,
2013-08-22 22:19:00,79.7,65.5,29.98,West,280,6.0,9.0,62,0.00,,SCT250,0.00,VWS V14.01,2013-08-23 02:19:00,
2013-08-22 22:24:00,79.6,65.4,29.98,SW,219,2.0,8.0,62,0.00,,SCT250,0.00,VWS V14.01,2013-08-23 02:24:00,
2013-08-22 22:29:00,79.5,65.3,29.98,West,278,1.0,11.0,62,0.00,,SCT250,0.00,VWS V14.01,2013-08-23 02:29:00,
2013-08-22 22:34:00,79.4,65.7,29.97,WSW,251,2.0,11.0,63,0.00,,SCT250,0.00,VWS V14.01,2013-08-23 02:34:00,
2013-08-22 22:39:00,79.4,65.7,29.97,WSW,244,2.0,8.0,63,0.00,,SCT250,0.00,VWS V14.01,2013-08-23 02:39:00,
2013-08-22 22:44:00,79.2,65.5,29.97,SW,228,2.0,9.0,63,0.00,,SCT250,0.00,VWS V14.01,2013-08-23 02:44:00,
2013-08-22 22:50:00,79.2,66.0,29.98,WNW,282,2.0,9.0,64,0.00,,SCT250,0.00,VWS V14.01,2013-08-23 02:50:00,
2013-08-22 22:59:00,79.0,65.8,29.98,WNW,289,7.0,10.0,64,0.00,,SCT250,0.00,VWS V14.01,2013-08-23 02:59:00,
2013-08-22 23:08:00,79.0,65.8,29.98,WSW,242,0.0,12.0,64,0.00,,SCT250,0.00,VWS V14.01,2013-08-23 03:08:00,
2013-08-22 23:14:00,78.7,66.0,29.97,West,279,4.0,9.0,65,0.00,,SCT250,0.00,VWS V14.01,2013-08-23 03:14:00,
2013-08-22 23:19:00,78.6,66.3,29.97,West,259,3.0,9.0,66,0.00,,SCT250,0.00,VWS V14.01,2013-08-23 03:19:00,
2013-08-22 23:24:00,78.5,66.2,29.97,SW,225,3.0,7.0,66,0.00,,SCT250,0.00,VWS V14.01,2013-08-23 03:24:00,
2013-08-22 23:29:00,78.3,66.5,29.97,West,259,0.0,8.0,67,0.00,,SCT250,0.00,VWS V14.01,2013-08-23 03:29:00,
2013-08-22 23:34:00,78.2,66.9,29.97,WSW,244,1.0,3.0,68,0.00,,SCT250,0.00,VWS V14.01,2013-08-23 03:34:00,
2013-08-22 23:39:00,78.1,66.8,29.97,West,261,4.0,7.0,68,0.00,,SCT250,0.00,VWS V14.01,2013-08-23 03:39:00,
2013-08-22 23:44:00,77.9,66.6,29.97,WNW,282,4.0,6.0,68,0.00,,SCT250,0.00,VWS V14.01,2013-08-23 03:44:00,
2013-08-22 23:54:00,77.9,66.6,29.97,West,266,3.0,5.0,68,0.00,,SCT250,0.00,VWS V14.01,2013-08-23 03:54:00,
2013-08-22 23:59:00,77.8,66.5,29.98,West,260,4.0,7.0,68,0.00,,SCT250,0.00,VWS V14.01,2013-08-23 03:59:00,